Location: Roland
(31.1349°N, 85.4372°W)
Time: 01:48:03
(UTC+00:00)

Vanguard 3 - Visible Passes

Search period start: 21 April 2021 00:00
Search period end: 01 May 2021 00:00
Orbit: 508 x 3262 km, 33.3° (Epoch: 20 April)

Date Brightness Start Highest point End Pass type
(mag) Time Alt. Az. Time Alt. Az. Time Alt. Az.
21 Apr 7.0 08:59:24 48° NE 08:59:24 48° NE 09:02:17 10° E visible
22 Apr 6.1 09:54:03 22° WNW 09:56:19 87° NNE 10:00:15 10° ESE visible
23 Apr 10.3 01:59:25 10° S 02:02:43 13° SSE 02:02:43 13° SSE visible
23 Apr 7.8 08:44:10 32° ENE 08:44:10 32° ENE 08:46:15 10° E visible
24 Apr 10.2 02:54:16 10° SSW 02:58:21 19° SSW 02:58:21 19° SSW visible
24 Apr 6.0 09:38:54 36° W 09:40:18 79° SSW 09:44:02 10° ESE visible
25 Apr 9.9 01:39:36 10° S 01:48:42 20° SSE 01:49:25 20° SSE visible
25 Apr 10.4 03:51:50 10° SW 03:54:04 16° SW 03:54:04 16° SW visible
25 Apr 8.5 08:29:07 20° E 08:29:07 20° E 08:30:18 10° E visible
25 Apr 7.1 10:34:27 10° W 10:37:47 32° SSW 10:41:23 10° SE visible
26 Apr 9.5 02:35:46 10° SSW 02:45:11 33° S 02:45:11 33° S visible
26 Apr 6.1 09:23:58 62° SW 09:24:15 64° SSW 09:27:52 10° ESE visible
27 Apr 9.6 01:20:22 10° SSW 01:32:05 26° SSE 01:36:21 21° ESE visible
27 Apr 9.6 03:33:56 10° SW 03:41:00 33° SW 03:41:00 33° SW visible
27 Apr 9.2 08:14:19 10° E 08:14:19 10° E 08:14:22 10° E visible
27 Apr 7.4 10:18:54 12° W 10:21:39 24° SSW 10:24:46 10° SSE visible
28 Apr 8.9 02:17:21 10° SW 02:30:57 43° SSE 02:32:10 42° SE visible
28 Apr 10.1 04:33:16 10° WSW 04:36:50 21° WSW 04:36:50 21° WSW visible
28 Apr 7.1 09:09:20 36° SSE 09:09:20 36° SSE 09:11:44 10° SE visible
29 Apr 9.8 01:01:26 10° SSW 01:15:18 32° SSE 01:23:18 14° E visible
29 Apr 8.7 03:16:02 10° WSW 03:27:57 60° SSW 03:27:57 60° SSW visible
29 Apr 7.7 10:04:27 17° SW 10:05:27 19° SSW 10:08:06 10° SSE visible
30 Apr 9.1 01:59:01 10° SW 02:14:12 51° SSE 02:19:01 32° E visible
30 Apr 9.3 04:15:45 10° WSW 04:23:40 41° WSW 04:23:40 41° WSW visible
30 Apr 8.6 08:55:03 14° SE 08:55:03 14° SE 08:55:36 10° SE visible
